OBJECT J, 67001

Orbit data source: Space-Track

You're viewing an Uncataloged Satellite

Recently launched and/or uncataloged satellites may have evolving metadata. Metadata may include but not limited to: Owner, Maufacturer, Bus, Motor, and Mission.

OBJECT J, 67001 is a Chinese satellite in SSO that was launched on Wed, 10 Dec 2025 UTC via a LIJIAN-1 launch vehicle from the Jiuquan Satellite Launch Center, China (JSC). Unknown objects in Earth's orbit typically refer to objects detected orbiting the Earth but have not yet been identified or cataloged. These objects could be anything from previously untracked satellites, spent rocket stages, debris from satellite collisions, or even natural meteoroids temporarily captured by Earth's gravity.

Loading next visibility...
Identifier
67001, 2025-292J
Orbit
SSO
Country
Flag of CNCN / PRC
Related business
None
Manufacturer
Unknown
Mission
Operational Amateur Technology
Bus & Motor
Unknown
Mass
Unknown
Launch date (UTC)
2025-12-10 (6 months ago)
Launch vehicle
LIJIAN-1
Launch site
Jiuquan Satellite Launch Center, China (JSC)
Object type
Unknown
Shape & HBR
Box, 1.1 m
Radar Cross Section
0.015 m², Medium (>0.1 m² and < 1m²)

Expand to show TLE details & history
Last TLE update: 1 day ago

TLE from 1 day ago
0 OBJECT J
1 67001U 25292J   26170.76050810  .00004403  00000-0  30107-3 0  9992
2 67001  97.6342 246.5425 0014642 351.2495   8.8474 15.06565321 28837
Epoch: 2026-06-19T18:15Z
TLE epoch observation values (Epoch: 2026-06-19T18:15:07.899Z)
Latitude
-0.00011°
Longitude
64.77475°
Altitude
539.75 km
Speed
7.598 km/s
True Right ascension
16h 26m 10s
True Declination
0° 00' 00"
Sunlit
Object was in full shadow at epoch
Visualization orbit readout
Latitude
Unknown
Longitude
Unknown
Altitude
Unknown
Speed
Unknown
Apparent Right ascension
Unknown
Apparent Declination
Unknown
Sunlit
N/A
Visualization observer readout
Local Sidereal Time
07:16:58
Azimuth
Unknown
Elevation
Unknown
Doppler factor
Unknown
Orbital elements
Apogee altitude
553.833 km
Perigee altitude
533.564 km
Semi-major axis
6,921.836 km
Eccentricity
0.00146
Inclination
97.6342°
RAAN
246.5425°
Arg. of periapsis
351.2495°
True anomaly
8.87325°
Mean anomaly
8.8474°
Eccentric anomaly
8.86032°
Mean motion
3.76887 °/min
Orbital period
95.52 mins
BSTAR
0.00030107
Loading maneuver chart data...
Computing Atmospheric mass density...
Loading historical data...
Loading historical data...
Loading historical data...
Loading historical data...
Loading historical data...
Loading historical data...
Loading historical data...

Documentation

Showing up to 5 results
|